Regional Weather Roundup
Issued by NWS

Home | Current Version | Previous Version | Graphics & Text | Print | Product List | Glossary On
Versions: 1 2 3 4 5 6 7 8 9 10 11 12 13 14 15 16 17 18 19 20 21 22 23 24 25 26 27 28 29 30 31 32 33 34 35 36 37 38 39 40 41 42 43 44 45 46 47 48 49 50
000
ASUS45 KSLC 011210
RWRUT

UTAH REGIONAL WEATHER ROUNDUP
NATIONAL WEATHER SERVICE SALT LAKE CITY UT
600 AM MDT MON SEP 01 2014

UTZ001>011-023>025-011300-

NORTHERN UTAH

CITY           SKY/WX    TMP DP  RH WIND       PRES   REMARKS
HILL AFB       CLEAR     53  35  49 E15       30.04R
LOGAN          PTCLDY    45  42  89 NW3       30.05S
OGDEN          CLEAR     52  35  52 S6        30.03R
PROVO AIRPORT  CLEAR     52  43  71 CALM      30.06R
SALT LAKE CITY CLEAR     55  40  56 SE6       30.01R
VERNAL         CLEAR     48  35  60 NW5       30.07S
WENDOVER       CLEAR     61  37  41 CALM      30.03R
HEBER CITY     CLEAR     37  36  93 CALM      30.12R
WEST JORDAN    CLEAR     54  43  66 S6        30.03R

$$

UTZ012>022-026-027-011300-

SOUTHERN UTAH

CITY           SKY/WX    TMP DP  RH WIND       PRES   REMARKS
BRYCE CANYON   CLEAR     37  32  82 SW3       30.21S
CEDAR CITY     CLEAR     51  35  54 CALM      30.07R
MILFORD        CLEAR     52  37  56 NW6       30.04R
MOAB/CYNLANDS  CLEAR     57  33  40 CALM      29.99R
PRICE          CLEAR     52  33  48 N9        30.08S
ST GEORGE      SUNNY     70  37  30 CALM      29.91R
KANAB            N/A     52  36  54 E6        30.09R

$$

REGIONAL REPORTS     COLORADO/ARIZONA

CITY           SKY/WX    TMP DP  RH WIND       PRES   REMARKS
CRAIG, CO      CLEAR     41  38  89 CALM      30.14R
GRAND JUNCTION CLEAR     50  41  71 CALM      30.03R
RIFLE          CLEAR     46  41  82 E3        30.10R
MONTROSE       CLEAR     53  37  54 SE9       30.12S
CORTEZ         CLEAR     46  39  76 E5        30.11R
PAGE, AZ       CLEAR     72  35  25 CALM      29.99R
GRAND CANYON     N/A    N/A N/A N/A MISG        N/A
KINGMAN        CLEAR     71  45  39 VRB7      29.93S
FLAGSTAFF      CLEAR     49  41  74 CALM      30.23S

$$

REGIONAL REPORTS    NEVADA/IDAHO/WYOMING

CITY           SKY/WX    TMP DP  RH WIND       PRES   REMARKS
LAS VEGAS, NV  CLEAR     82  31  15 SW7       29.77R
ELY            PTCLDY    44  32  62 S10       30.14S
ELKO           CLEAR     48  33  56 E3        30.10R
POCATELLO, ID  CLEAR     53  38  56 SW12      30.05R
BURLEY         CLEAR     45  40  82 SW7       30.05R
EVANSTON, WY   CLEAR     44  30  57 S7        30.15R
ROCK SPRINGS   PTCLDY    45  32  60 SW5       30.12S

$$


USA.gov is the U.S. government's official web portal to all federal, state and local government web resources and services.